Tracking 28052 objects as of 22-Sep-2023
HD Live streaming from Space Station
objects crossing your sky now

FLOCK 4Y 32

Track FLOCK 4Y 32 now!
10-day predictions
FLOCK 4Y 32 is classified as:


NORAD ID: 55021
Int'l Code: 2023-001N
Perigee: 504.9 km
Apogee: 520.2 km
Inclination: 97.5 °
Period: 94.7 minutes
Semi major axis: 6883 km
RCS: Unknown
Launch date: January 3, 2023
Source: United States (US)
Launch site: AIR FORCE EASTERN TEST RANGE (AFETR)
Your satellite tracking list
Your tracking list is empty




NASA's NSSDC Master Catalog

Two Line Element Set (TLE):
1 55021U 23001N   23264.16568065  .00011552  00000-0  53604-3 0  9998
2 55021  97.4662 322.9195 0011155  41.3467 318.8610 15.20144288 39653
Source of the keplerian elements: AFSPC